Time,TemperatureF,DewpointF,PressureIn,WindDirection,WindDirectionDegrees,WindSpeedMPH,WindSpeedGustMPH,Humidity,HourlyPrecipIn,Conditions,Clouds,dailyrainin,SoftwareType,DateUTC
2013-08-16 00:00:00,80.1,76.6,30.07,SSE,153,0.0,0.0,89,0.00,,,0.00,Wunderground v.1.15,2013-08-16 04:00:00,
2013-08-16 00:05:00,80.0,76.5,30.07,SSE,153,0.0,0.0,89,0.00,,,0.00,Wunderground v.1.15,2013-08-16 04:05:00,
2013-08-16 00:10:00,80.0,76.5,30.07,SSE,153,0.0,0.0,89,0.00,,,0.00,Wunderground v.1.15,2013-08-16 04:10:00,
2013-08-16 00:15:00,80.0,76.8,30.07,SSE,153,0.0,0.0,90,0.00,,,0.00,Wunderground v.1.15,2013-08-16 04:15:00,
2013-08-16 00:20:00,79.9,76.7,30.07,SSE,153,0.0,0.0,90,0.00,,,0.00,Wunderground v.1.15,2013-08-16 04:20:00,
2013-08-16 00:25:00,79.6,76.1,30.06,SSE,153,0.0,0.0,89,0.00,,,0.00,Wunderground v.1.15,2013-08-16 04:25:00,
2013-08-16 00:30:00,79.4,75.9,30.06,SSE,153,0.0,0.0,89,0.00,,,0.00,Wunderground v.1.15,2013-08-16 04:30:00,
2013-08-16 00:35:00,79.4,76.2,30.06,SSE,153,0.0,0.0,90,0.00,,,0.00,Wunderground v.1.15,2013-08-16 04:35:00,
2013-08-16 00:40:00,79.4,76.5,30.06,SSE,153,0.0,0.0,91,0.00,,,0.00,Wunderground v.1.15,2013-08-16 04:40:00,
2013-08-16 00:45:00,79.3,76.1,30.06,SSE,153,0.0,0.0,90,0.00,,,0.00,Wunderground v.1.15,2013-08-16 04:45:00,
2013-08-16 00:50:00,79.1,75.9,30.06,SSE,153,0.0,0.0,90,0.00,,,0.00,Wunderground v.1.15,2013-08-16 04:50:00,
2013-08-16 00:55:00,78.9,76.0,30.05,SSE,153,0.0,0.0,91,0.00,,,0.00,Wunderground v.1.15,2013-08-16 04:55:00,
2013-08-16 01:00:00,78.8,75.9,30.05,SSE,153,0.0,0.0,91,0.00,,,0.00,Wunderground v.1.15,2013-08-16 05:00:00,
2013-08-16 01:10:00,78.7,76.2,30.05,SSE,153,0.0,0.0,92,0.00,,,0.00,Wunderground v.1.15,2013-08-16 05:10:00,
2013-08-16 01:15:00,78.5,76.0,30.05,SSE,153,0.0,0.0,92,0.00,,,0.00,Wunderground v.1.15,2013-08-16 05:15:00,
2013-08-16 01:20:00,78.3,75.8,30.04,SSE,153,0.0,0.0,92,0.00,,,0.00,Wunderground v.1.15,2013-08-16 05:20:00,
2013-08-16 01:25:00,78.3,76.1,30.04,SSE,153,0.0,0.0,93,0.00,,,0.00,Wunderground v.1.15,2013-08-16 05:25:00,
2013-08-16 01:30:00,78.3,76.1,30.04,SSE,153,0.0,0.0,93,0.00,,,0.00,Wunderground v.1.15,2013-08-16 05:30:00,
2013-08-16 01:35:00,78.3,76.1,30.04,SSE,153,0.0,0.0,93,0.00,,,0.00,Wunderground v.1.15,2013-08-16 05:35:00,
2013-08-16 01:45:00,78.3,76.1,30.04,SSE,153,0.0,0.0,93,0.00,,,0.00,Wunderground v.1.15,2013-08-16 05:45:00,
2013-08-16 01:50:00,78.3,76.1,30.03,SSE,153,0.0,0.0,93,0.00,,,0.00,Wunderground v.1.15,2013-08-16 05:50:00,
2013-08-16 01:55:00,78.4,76.2,30.04,SSE,153,0.0,0.0,93,0.00,,,0.00,Wunderground v.1.15,2013-08-16 05:55:00,
2013-08-16 02:00:00,78.3,76.1,30.04,SSE,153,0.0,0.0,93,0.00,,,0.00,Wunderground v.1.15,2013-08-16 06:00:00,
2013-08-16 02:10:00,78.3,76.1,30.04,SSE,153,0.0,0.0,93,0.00,,,0.00,Wunderground v.1.15,2013-08-16 06:10:00,
2013-08-16 02:20:00,78.2,76.0,30.03,SSE,153,0.0,0.0,93,0.00,,,0.00,Wunderground v.1.15,2013-08-16 06:20:00,
2013-08-16 02:25:00,78.2,76.0,30.03,SSE,153,0.0,0.0,93,0.00,,,0.00,Wunderground v.1.15,2013-08-16 06:25:00,
2013-08-16 02:30:00,78.2,76.0,30.03,SSE,153,0.0,0.0,93,0.00,,,0.00,Wunderground v.1.15,2013-08-16 06:30:00,
2013-08-16 02:35:00,78.2,76.0,30.03,SSE,153,0.0,0.0,93,0.00,,,0.00,Wunderground v.1.15,2013-08-16 06:35:00,
2013-08-16 02:40:00,78.2,76.0,30.03,SSE,153,0.0,0.0,93,0.00,,,0.00,Wunderground v.1.15,2013-08-16 06:40:00,
2013-08-16 02:45:00,78.2,76.0,30.03,SSE,153,0.0,0.0,93,0.00,,,0.00,Wunderground v.1.15,2013-08-16 06:45:00,
2013-08-16 02:55:00,78.2,75.7,30.03,SSE,153,0.0,0.0,92,0.00,,,0.00,Wunderground v.1.15,2013-08-16 06:55:00,
2013-08-16 03:00:00,78.3,75.8,30.03,SSE,153,0.0,0.0,92,0.00,,,0.00,Wunderground v.1.15,2013-08-16 07:00:00,
2013-08-16 03:10:00,78.4,75.9,30.03,SSE,153,0.0,0.0,92,0.00,,,0.00,Wunderground v.1.15,2013-08-16 07:10:00,
2013-08-16 03:15:00,78.5,76.0,30.03,SSE,153,0.0,0.0,92,0.00,,,0.00,Wunderground v.1.15,2013-08-16 07:15:00,
2013-08-16 03:20:00,78.6,76.1,30.03,SSE,153,0.0,0.0,92,0.00,,,0.00,Wunderground v.1.15,2013-08-16 07:20:00,
2013-08-16 03:25:00,78.7,76.2,30.02,SSE,153,0.0,0.0,92,0.00,,,0.00,Wunderground v.1.15,2013-08-16 07:25:00,
2013-08-16 03:30:00,78.6,76.1,30.02,SSE,153,0.0,0.0,92,0.00,,,0.00,Wunderground v.1.15,2013-08-16 07:30:00,
2013-08-16 03:35:00,78.6,76.1,30.02,SSE,153,0.0,0.0,92,0.00,,,0.00,Wunderground v.1.15,2013-08-16 07:35:00,
2013-08-16 03:40:00,78.6,76.1,30.02,SSE,153,0.0,0.0,92,0.00,,,0.00,Wunderground v.1.15,2013-08-16 07:40:00,
2013-08-16 03:50:00,78.5,76.0,30.02,SSE,153,0.0,0.0,92,0.00,,,0.00,Wunderground v.1.15,2013-08-16 07:50:00,
2013-08-16 03:55:00,78.5,76.0,30.02,SSE,153,0.0,0.0,92,0.00,,,0.00,Wunderground v.1.15,2013-08-16 07:55:00,
2013-08-16 04:00:00,78.5,76.0,30.02,SSE,153,0.0,0.0,92,0.00,,,0.00,Wunderground v.1.15,2013-08-16 08:00:00,
2013-08-16 04:10:00,78.5,76.0,30.01,SSE,153,0.0,0.0,92,0.00,,,0.00,Wunderground v.1.15,2013-08-16 08:10:00,
2013-08-16 04:15:00,78.5,76.0,30.01,SSE,153,0.0,0.0,92,0.00,,,0.00,Wunderground v.1.15,2013-08-16 08:15:00,
2013-08-16 04:20:00,78.5,76.0,30.01,SSE,153,0.0,0.0,92,0.00,,,0.00,Wunderground v.1.15,2013-08-16 08:20:00,
2013-08-16 04:25:00,78.5,76.0,30.01,SSE,153,0.0,0.0,92,0.00,,,0.00,Wunderground v.1.15,2013-08-16 08:25:00,
2013-08-16 04:35:00,78.4,75.9,30.02,SSE,153,0.0,0.0,92,0.00,,,0.00,Wunderground v.1.15,2013-08-16 08:35:00,
2013-08-16 04:40:00,78.4,76.2,30.02,SSE,153,0.0,0.0,93,0.00,,,0.00,Wunderground v.1.15,2013-08-16 08:40:00,
2013-08-16 04:45:00,78.4,76.2,30.02,SSE,153,0.0,0.0,93,0.00,,,0.00,Wunderground v.1.15,2013-08-16 08:45:00,
2013-08-16 04:50:00,78.5,76.3,30.02,SSE,153,0.0,0.0,93,0.00,,,0.00,Wunderground v.1.15,2013-08-16 08:50:00,
2013-08-16 04:55:00,78.5,76.3,30.02,SSE,153,0.0,0.0,93,0.00,,,0.00,Wunderground v.1.15,2013-08-16 08:55:00,
2013-08-16 05:00:00,78.6,76.4,30.02,SSE,153,0.0,0.0,93,0.00,,,0.00,Wunderground v.1.15,2013-08-16 09:00:00,
2013-08-16 05:10:00,78.5,76.3,30.01,SSE,153,0.0,0.0,93,0.00,,,0.00,Wunderground v.1.15,2013-08-16 09:10:00,
2013-08-16 05:15:00,78.5,76.3,30.01,SSE,153,0.0,0.0,93,0.00,,,0.00,Wunderground v.1.15,2013-08-16 09:15:00,
2013-08-16 05:20:00,78.4,76.5,30.02,SSE,153,0.0,0.0,94,0.00,,,0.00,Wunderground v.1.15,2013-08-16 09:20:00,
2013-08-16 05:25:00,78.4,76.5,30.02,SSE,153,0.0,0.0,94,0.00,,,0.00,Wunderground v.1.15,2013-08-16 09:25:00,
2013-08-16 05:30:00,78.3,76.1,30.02,SSE,153,0.0,0.0,93,0.00,,,0.00,Wunderground v.1.15,2013-08-16 09:30:00,
2013-08-16 05:40:00,78.2,76.3,30.02,SSE,153,0.0,0.0,94,0.00,,,0.00,Wunderground v.1.15,2013-08-16 09:40:00,
2013-08-16 05:45:00,78.1,75.9,30.02,SSE,153,0.0,0.0,93,0.00,,,0.00,Wunderground v.1.15,2013-08-16 09:45:00,
2013-08-16 05:50:00,78.1,76.2,30.03,SSE,153,0.0,0.0,94,0.00,,,0.00,Wunderground v.1.15,2013-08-16 09:50:00,
2013-08-16 05:55:00,78.2,76.3,30.03,SSE,153,0.0,0.0,94,0.00,,,0.00,Wunderground v.1.15,2013-08-16 09:55:00,
2013-08-16 06:00:00,78.2,76.0,30.04,SSE,153,0.0,0.0,93,0.00,,,0.00,Wunderground v.1.15,2013-08-16 10:00:00,
2013-08-16 06:10:00,78.0,75.8,30.03,SSE,153,0.0,0.0,93,0.00,,,0.00,Wunderground v.1.15,2013-08-16 10:10:00,
2013-08-16 06:15:00,78.0,75.8,30.03,SSE,153,0.0,0.0,93,0.00,,,0.00,Wunderground v.1.15,2013-08-16 10:15:00,
2013-08-16 06:20:00,78.0,75.8,30.04,SSE,153,0.0,0.0,93,0.00,,,0.00,Wunderground v.1.15,2013-08-16 10:20:00,
2013-08-16 06:25:00,77.9,76.0,30.04,SSE,153,0.0,0.0,94,0.00,,,0.00,Wunderground v.1.15,2013-08-16 10:25:00,
2013-08-16 06:30:00,78.0,76.1,30.04,SSE,153,0.0,0.0,94,0.00,,,0.00,Wunderground v.1.15,2013-08-16 10:30:00,
2013-08-16 06:35:00,78.0,76.1,30.05,SSE,153,0.0,0.0,94,0.00,,,0.00,Wunderground v.1.15,2013-08-16 10:35:00,
2013-08-16 06:40:00,78.1,76.6,30.05,SSE,153,0.0,0.0,95,0.00,,,0.00,Wunderground v.1.15,2013-08-16 10:40:00,
2013-08-16 06:50:00,78.0,76.5,30.04,SSE,153,0.0,0.0,95,0.00,,,0.00,Wunderground v.1.15,2013-08-16 10:50:00,
2013-08-16 06:55:00,78.0,76.5,30.05,SSE,153,0.0,0.0,95,0.00,,,0.00,Wunderground v.1.15,2013-08-16 10:55:00,
2013-08-16 07:00:00,78.1,76.6,30.05,SSE,153,0.0,0.0,95,0.00,,,0.00,Wunderground v.1.15,2013-08-16 11:00:00,
2013-08-16 07:10:00,77.9,76.4,30.05,SSE,153,0.0,0.0,95,0.00,,,0.00,Wunderground v.1.15,2013-08-16 11:10:00,
2013-08-16 07:15:00,77.9,76.4,30.05,SSE,153,0.0,0.0,95,0.00,,,0.00,Wunderground v.1.15,2013-08-16 11:15:00,
2013-08-16 07:20:00,78.0,76.5,30.05,SSE,153,0.0,0.0,95,0.00,,,0.00,Wunderground v.1.15,2013-08-16 11:20:00,
2013-08-16 07:25:00,78.0,76.5,30.05,SSE,153,0.0,0.0,95,0.00,,,0.00,Wunderground v.1.15,2013-08-16 11:25:00,
2013-08-16 07:30:00,78.0,76.5,30.05,SSE,153,0.0,0.0,95,0.00,,,0.00,Wunderground v.1.15,2013-08-16 11:30:00,
2013-08-16 07:35:00,78.0,76.5,30.05,SSE,153,0.0,0.0,95,0.00,,,0.00,Wunderground v.1.15,2013-08-16 11:35:00,
2013-08-16 07:40:00,77.9,76.4,30.05,SSE,153,0.0,0.0,95,0.00,,,0.00,Wunderground v.1.15,2013-08-16 11:40:00,
2013-08-16 07:50:00,78.0,76.5,30.05,SSE,153,0.0,0.0,95,0.00,,,0.00,Wunderground v.1.15,2013-08-16 11:50:00,
2013-08-16 07:55:00,78.1,76.6,30.05,SSE,153,0.0,0.0,95,0.00,,,0.00,Wunderground v.1.15,2013-08-16 11:55:00,
2013-08-16 08:00:00,78.1,76.6,30.05,SSE,153,0.0,0.0,95,0.00,,,0.00,Wunderground v.1.15,2013-08-16 12:00:00,
2013-08-16 08:10:00,78.2,76.6,30.05,SSE,153,0.0,0.0,95,0.00,,,0.00,Wunderground v.1.15,2013-08-16 12:10:00,
2013-08-16 08:15:00,78.2,76.6,30.05,SSE,153,0.0,0.0,95,0.00,,,0.00,Wunderground v.1.15,2013-08-16 12:15:00,
2013-08-16 08:20:00,78.2,76.3,30.05,SSE,153,0.0,0.0,94,0.00,,,0.00,Wunderground v.1.15,2013-08-16 12:20:00,
2013-08-16 08:30:00,78.5,76.6,30.05,SSE,153,0.0,0.0,94,0.00,,,0.00,Wunderground v.1.15,2013-08-16 12:30:00,
2013-08-16 08:35:00,78.8,76.9,30.05,SSE,153,0.0,0.0,94,0.00,,,0.00,Wunderground v.1.15,2013-08-16 12:35:00,
2013-08-16 08:45:00,79.5,77.3,30.05,SSE,153,0.0,0.0,93,0.00,,,0.00,Wunderground v.1.15,2013-08-16 12:45:00,
2013-08-16 08:50:00,79.7,77.2,30.05,SSE,153,0.0,0.0,92,0.00,,,0.00,Wunderground v.1.15,2013-08-16 12:50:00,
2013-08-16 09:00:00,80.6,76.7,30.05,SSE,151,1.0,1.0,88,0.00,,,0.00,Wunderground v.1.15,2013-08-16 13:00:00,
2013-08-16 09:10:00,81.1,77.2,30.06,SSE,147,3.0,5.0,88,0.00,,,0.00,Wunderground v.1.15,2013-08-16 13:10:00,
2013-08-16 09:15:00,81.5,77.6,30.05,SE,140,3.0,5.0,88,0.00,,,0.00,Wunderground v.1.15,2013-08-16 13:15:00,
2013-08-16 09:20:00,82.1,77.8,30.05,SE,134,3.0,5.0,87,0.00,,,0.00,Wunderground v.1.15,2013-08-16 13:20:00,
2013-08-16 09:25:00,82.5,77.5,30.05,SE,131,3.0,5.0,85,0.00,,,0.00,Wunderground v.1.15,2013-08-16 13:25:00,
2013-08-16 09:35:00,83.3,78.0,30.05,SE,130,3.0,5.0,84,0.00,,,0.00,Wunderground v.1.15,2013-08-16 13:35:00,
2013-08-16 09:45:00,84.3,78.2,30.05,SE,130,2.0,5.0,82,0.00,,,0.00,Wunderground v.1.15,2013-08-16 13:45:00,
2013-08-16 09:55:00,84.8,77.9,30.06,ESE,121,2.0,5.0,80,0.00,,,0.00,Wunderground v.1.15,2013-08-16 13:55:00,
2013-08-16 10:00:00,85.3,78.0,30.05,ESE,121,3.0,6.0,79,0.00,,,0.00,Wunderground v.1.15,2013-08-16 14:00:00,
2013-08-16 10:10:00,85.1,77.1,30.05,ESE,119,3.0,3.0,77,0.00,,,0.00,Wunderground v.1.15,2013-08-16 14:10:00,
2013-08-16 10:15:00,85.1,75.5,30.05,ESE,109,4.0,5.0,73,0.00,,,0.00,Wunderground v.1.15,2013-08-16 14:15:00,
2013-08-16 10:20:00,85.2,76.0,30.05,ESE,109,5.0,5.0,74,0.00,,,0.00,Wunderground v.1.15,2013-08-16 14:20:00,
2013-08-16 10:25:00,85.6,75.9,30.05,ESE,109,4.0,6.0,73,0.00,,,0.00,Wunderground v.1.15,2013-08-16 14:25:00,
2013-08-16 10:30:00,86.1,76.0,30.05,ESE,109,3.0,6.0,72,0.00,,,0.00,Wunderground v.1.15,2013-08-16 14:30:00,
2013-08-16 10:40:00,86.7,76.6,30.06,ESE,109,2.0,6.0,72,0.00,,,0.00,Wunderground v.1.15,2013-08-16 14:40:00,
2013-08-16 10:45:00,87.0,76.0,30.06,ESE,107,2.0,6.0,70,0.00,,,0.00,Wunderground v.1.15,2013-08-16 14:45:00,
2013-08-16 10:50:00,87.3,76.3,30.06,East,100,2.0,7.0,70,0.00,,,0.00,Wunderground v.1.15,2013-08-16 14:50:00,
2013-08-16 10:55:00,87.3,75.4,30.06,East,99,4.0,7.0,68,0.00,,,0.00,Wunderground v.1.15,2013-08-16 14:55:00,
2013-08-16 11:00:00,87.7,75.8,30.06,East,98,5.0,7.0,68,0.00,,,0.00,Wunderground v.1.15,2013-08-16 15:00:00,
2013-08-16 11:10:00,88.4,76.0,30.06,East,98,3.0,3.0,67,0.00,,,0.00,Wunderground v.1.15,2013-08-16 15:10:00,
2013-08-16 11:15:00,88.6,76.7,30.06,East,98,2.0,7.0,68,0.00,,,0.00,Wunderground v.1.15,2013-08-16 15:15:00,
2013-08-16 11:20:00,89.2,75.9,30.06,East,94,2.0,8.0,65,0.00,,,0.00,Wunderground v.1.15,2013-08-16 15:20:00,
2013-08-16 11:25:00,89.2,75.9,30.06,East,93,3.0,8.0,65,0.00,,,0.00,Wunderground v.1.15,2013-08-16 15:25:00,
2013-08-16 11:30:00,89.7,75.9,30.06,East,92,3.0,7.0,64,0.00,,,0.00,Wunderground v.1.15,2013-08-16 15:30:00,
2013-08-16 11:35:00,89.8,76.0,30.06,East,92,3.0,7.0,64,0.00,,,0.00,Wunderground v.1.15,2013-08-16 15:35:00,
2013-08-16 11:40:00,89.9,75.6,30.05,East,90,4.0,4.0,63,0.00,,,0.00,Wunderground v.1.15,2013-08-16 15:40:00,
2013-08-16 11:45:00,90.2,75.4,30.05,East,90,3.0,7.0,62,0.00,,,0.00,Wunderground v.1.15,2013-08-16 15:45:00,
2013-08-16 11:50:00,90.8,76.9,30.05,East,90,3.0,7.0,64,0.00,,,0.00,Wunderground v.1.15,2013-08-16 15:50:00,
2013-08-16 11:55:00,91.0,76.7,30.05,East,90,3.0,7.0,63,0.00,,,0.00,Wunderground v.1.15,2013-08-16 15:55:00,
2013-08-16 12:00:00,91.0,76.7,30.05,East,90,2.0,2.0,63,0.00,,,0.00,Wunderground v.1.15,2013-08-16 16:00:00,
2013-08-16 12:10:00,91.9,75.5,30.05,East,86,2.0,2.0,59,0.00,,,0.00,Wunderground v.1.15,2013-08-16 16:10:00,
2013-08-16 12:20:00,91.2,75.4,30.04,East,85,4.0,4.0,60,0.00,,,0.00,Wunderground v.1.15,2013-08-16 16:20:00,
2013-08-16 12:25:00,92.0,76.1,30.05,East,85,2.0,4.0,60,0.00,,,0.00,Wunderground v.1.15,2013-08-16 16:25:00,
2013-08-16 12:30:00,92.9,76.5,30.05,East,85,2.0,4.0,59,0.00,,,0.00,Wunderground v.1.15,2013-08-16 16:30:00,
2013-08-16 12:35:00,93.0,75.5,30.04,East,79,3.0,8.0,57,0.00,,,0.00,Wunderground v.1.15,2013-08-16 16:35:00,
2013-08-16 12:40:00,92.5,75.0,30.04,ENE,63,3.0,4.0,57,0.00,,,0.00,Wunderground v.1.15,2013-08-16 16:40:00,
2013-08-16 12:45:00,92.6,75.7,30.05,ENE,63,3.0,6.0,58,0.00,,,0.00,Wunderground v.1.15,2013-08-16 16:45:00,
2013-08-16 12:55:00,92.7,76.3,30.05,ENE,63,3.0,5.0,59,0.00,,,0.00,Wunderground v.1.15,2013-08-16 16:55:00,
2013-08-16 13:00:00,93.1,75.6,30.04,ENE,63,2.0,2.0,57,0.00,,,0.00,Wunderground v.1.15,2013-08-16 17:00:00,
2013-08-16 13:10:00,92.4,75.5,30.03,ENE,62,3.0,5.0,58,0.00,,,0.00,Wunderground v.1.15,2013-08-16 17:10:00,
2013-08-16 13:15:00,92.2,76.3,30.03,NE,56,3.0,5.0,60,0.00,,,0.00,Wunderground v.1.15,2013-08-16 17:15:00,
2013-08-16 13:20:00,92.7,75.8,30.03,NE,56,2.0,4.0,58,0.00,,,0.00,Wunderground v.1.15,2013-08-16 17:20:00,
2013-08-16 13:25:00,93.0,76.0,30.03,NE,56,1.0,4.0,58,0.00,,,0.00,Wunderground v.1.15,2013-08-16 17:25:00,
2013-08-16 13:35:00,94.1,76.0,30.02,NE,56,2.0,2.0,56,0.00,,,0.00,Wunderground v.1.15,2013-08-16 17:35:00,
2013-08-16 13:40:00,93.6,75.5,30.02,NE,56,2.0,4.0,56,0.00,,,0.00,Wunderground v.1.15,2013-08-16 17:40:00,
2013-08-16 13:45:00,93.3,75.8,30.02,NE,56,1.0,4.0,57,0.00,,,0.00,Wunderground v.1.15,2013-08-16 17:45:00,
2013-08-16 13:55:00,94.3,75.1,30.02,NE,54,2.0,6.0,54,0.00,,,0.00,Wunderground v.1.15,2013-08-16 17:55:00,
2013-08-16 14:00:00,94.0,74.3,30.02,NE,45,4.0,4.0,53,0.00,,,0.00,Wunderground v.1.15,2013-08-16 18:00:00,
2013-08-16 14:10:00,93.3,74.2,30.02,NE,45,3.0,3.0,54,0.00,,,0.00,Wunderground v.1.15,2013-08-16 18:10:00,
2013-08-16 14:15:00,94.4,74.1,30.02,NE,53,2.0,10.0,52,0.00,,,0.00,Wunderground v.1.15,2013-08-16 18:15:00,
2013-08-16 14:20:00,94.8,74.4,30.01,ESE,103,2.0,10.0,52,0.00,,,0.00,Wunderground v.1.15,2013-08-16 18:20:00,
2013-08-16 14:25:00,95.1,74.1,30.01,ESE,105,2.0,10.0,51,0.00,,,0.00,Wunderground v.1.15,2013-08-16 18:25:00,
2013-08-16 14:35:00,95.1,75.3,30.01,East,88,2.0,10.0,53,0.00,,,0.00,Wunderground v.1.15,2013-08-16 18:35:00,
2013-08-16 14:40:00,95.5,74.5,30.00,East,94,2.0,2.0,51,0.00,,,0.00,Wunderground v.1.15,2013-08-16 18:40:00,
2013-08-16 14:45:00,95.9,74.3,30.00,ENE,71,2.0,10.0,50,0.00,,,0.00,Wunderground v.1.15,2013-08-16 18:45:00,
2013-08-16 14:50:00,94.8,74.4,30.00,ENE,70,4.0,10.0,52,0.00,,,0.00,Wunderground v.1.15,2013-08-16 18:50:00,
2013-08-16 14:55:00,94.7,74.3,30.00,ENE,67,4.0,10.0,52,0.00,,,0.00,Wunderground v.1.15,2013-08-16 18:55:00,
2013-08-16 15:00:00,95.9,73.7,30.00,ENE,62,3.0,3.0,49,0.00,,,0.00,Wunderground v.1.15,2013-08-16 19:00:00,
2013-08-16 15:10:00,96.7,73.8,30.00,ENE,68,2.0,2.0,48,0.00,,,0.00,Wunderground v.1.15,2013-08-16 19:10:00,
2013-08-16 15:15:00,96.9,74.6,30.00,ENE,65,2.0,7.0,49,0.00,,,0.00,Wunderground v.1.15,2013-08-16 19:15:00,
2013-08-16 15:20:00,96.2,73.9,29.99,ENE,64,2.0,2.0,49,0.00,,,0.00,Wunderground v.1.15,2013-08-16 19:20:00,
2013-08-16 15:25:00,95.5,73.3,29.99,ENE,63,3.0,6.0,49,0.00,,,0.00,Wunderground v.1.15,2013-08-16 19:25:00,
2013-08-16 15:30:00,95.1,72.3,29.99,ENE,63,3.0,7.0,48,0.00,,,0.00,Wunderground v.1.15,2013-08-16 19:30:00,
2013-08-16 15:35:00,94.6,72.5,29.99,ENE,63,3.0,7.0,49,0.00,,,0.00,Wunderground v.1.15,2013-08-16 19:35:00,
2013-08-16 15:45:00,94.1,72.6,29.99,ENE,63,3.0,7.0,50,0.00,,,0.00,Wunderground v.1.15,2013-08-16 19:45:00,
2013-08-16 15:55:00,94.2,73.3,29.98,ENE,63,3.0,7.0,51,0.00,,,0.00,Wunderground v.1.15,2013-08-16 19:55:00,
2013-08-16 16:00:00,94.4,72.3,29.98,ENE,61,4.0,4.0,49,0.00,,,0.00,Wunderground v.1.15,2013-08-16 20:00:00,
2013-08-16 16:10:00,95.8,73.6,29.98,ENE,61,2.0,2.0,49,0.00,,,0.00,Wunderground v.1.15,2013-08-16 20:10:00,
2013-08-16 16:15:00,96.5,73.0,29.97,ENE,61,1.0,5.0,47,0.00,,,0.00,Wunderground v.1.15,2013-08-16 20:15:00,
2013-08-16 16:20:00,96.0,73.1,29.97,ENE,61,3.0,3.0,48,0.00,,,0.00,Wunderground v.1.15,2013-08-16 20:20:00,
2013-08-16 16:25:00,95.7,72.9,29.97,ENE,61,2.0,7.0,48,0.00,,,0.00,Wunderground v.1.15,2013-08-16 20:25:00,
2013-08-16 16:30:00,96.8,73.9,29.98,ENE,61,1.0,7.0,48,0.00,,,0.00,Wunderground v.1.15,2013-08-16 20:30:00,
2013-08-16 16:35:00,96.9,74.6,29.97,ENE,61,2.0,7.0,49,0.00,,,0.00,Wunderground v.1.15,2013-08-16 20:35:00,
2013-08-16 16:45:00,97.2,74.9,29.98,NE,35,3.0,3.0,49,0.00,,,0.00,Wunderground v.1.15,2013-08-16 20:45:00,
2013-08-16 16:50:00,96.8,74.5,29.97,NNE,28,3.0,3.0,49,0.00,,,0.00,Wunderground v.1.15,2013-08-16 20:50:00,
2013-08-16 16:55:00,96.0,76.1,29.97,NE,39,4.0,4.0,53,0.00,,,0.00,Wunderground v.1.15,2013-08-16 20:55:00,
2013-08-16 17:00:00,95.4,76.1,29.97,NE,36,2.0,4.0,54,0.00,,,0.00,Wunderground v.1.15,2013-08-16 21:00:00,
2013-08-16 17:10:00,95.7,74.7,29.97,NE,54,2.0,7.0,51,0.00,,,0.00,Wunderground v.1.15,2013-08-16 21:10:00,
2013-08-16 17:20:00,94.9,74.5,29.97,NE,52,5.0,5.0,52,0.00,,,0.00,Wunderground v.1.15,2013-08-16 21:20:00,
2013-08-16 17:25:00,94.2,75.0,29.97,NE,46,3.0,5.0,54,0.00,,,0.00,Wunderground v.1.15,2013-08-16 21:25:00,
2013-08-16 17:30:00,93.5,74.9,29.98,NE,46,3.0,3.0,55,0.00,,,0.00,Wunderground v.1.15,2013-08-16 21:30:00,
2013-08-16 17:35:00,93.0,75.0,29.97,NE,46,2.0,4.0,56,0.00,,,0.00,Wunderground v.1.15,2013-08-16 21:35:00,
2013-08-16 17:40:00,92.6,75.1,29.98,NE,46,1.0,4.0,57,0.00,,,0.00,Wunderground v.1.15,2013-08-16 21:40:00,
2013-08-16 17:45:00,91.8,74.9,29.98,NE,46,3.0,4.0,58,0.00,,,0.00,Wunderground v.1.15,2013-08-16 21:45:00,
2013-08-16 17:55:00,91.8,75.4,29.98,NE,46,3.0,4.0,59,0.00,,,0.00,Wunderground v.1.15,2013-08-16 21:55:00,
2013-08-16 18:00:00,91.9,75.0,29.98,NE,46,2.0,2.0,58,0.00,,,0.00,Wunderground v.1.15,2013-08-16 22:00:00,
2013-08-16 18:10:00,91.7,74.3,29.98,NE,49,2.0,6.0,57,0.00,,,0.00,Wunderground v.1.15,2013-08-16 22:10:00,
2013-08-16 18:15:00,91.5,75.1,29.98,NE,50,3.0,6.0,59,0.00,,,0.00,Wunderground v.1.15,2013-08-16 22:15:00,
2013-08-16 18:20:00,91.1,75.3,29.99,NE,50,4.0,5.0,60,0.00,,,0.00,Wunderground v.1.15,2013-08-16 22:20:00,
2013-08-16 18:30:00,90.6,75.3,29.99,NE,50,1.0,1.0,61,0.00,,,0.00,Wunderground v.1.15,2013-08-16 22:30:00,
2013-08-16 18:35:00,90.3,75.5,29.99,NE,50,1.0,2.0,62,0.00,,,0.00,Wunderground v.1.15,2013-08-16 22:35:00,
2013-08-16 18:40:00,90.0,75.2,29.99,NE,50,1.0,4.0,62,0.00,,,0.00,Wunderground v.1.15,2013-08-16 22:40:00,
2013-08-16 18:45:00,89.7,75.4,29.99,NE,50,2.0,4.0,63,0.00,,,0.00,Wunderground v.1.15,2013-08-16 22:45:00,
2013-08-16 18:50:00,89.7,74.9,29.99,NE,50,1.0,1.0,62,0.00,,,0.00,Wunderground v.1.15,2013-08-16 22:50:00,
2013-08-16 19:00:00,89.7,75.4,29.99,NE,50,0.0,2.0,63,0.00,,,0.00,Wunderground v.1.15,2013-08-16 23:00:00,
2013-08-16 19:10:00,89.2,75.0,29.99,NE,50,0.0,2.0,63,0.00,,,0.00,Wunderground v.1.15,2013-08-16 23:10:00,
2013-08-16 19:15:00,89.1,75.3,29.99,NE,50,0.0,2.0,64,0.00,,,0.00,Wunderground v.1.15,2013-08-16 23:15:00,
2013-08-16 19:20:00,88.9,75.1,29.99,NE,50,0.0,2.0,64,0.00,,,0.00,Wunderground v.1.15,2013-08-16 23:20:00,
2013-08-16 19:25:00,88.6,75.8,29.99,NE,50,0.0,2.0,66,0.00,,,0.00,Wunderground v.1.15,2013-08-16 23:25:00,
2013-08-16 19:35:00,88.4,76.0,29.99,NE,50,0.0,2.0,67,0.00,,,0.00,Wunderground v.1.15,2013-08-16 23:35:00,
2013-08-16 19:40:00,88.2,76.3,30.00,NE,50,0.0,2.0,68,0.00,,,0.00,Wunderground v.1.15,2013-08-16 23:40:00,
2013-08-16 19:45:00,87.9,76.5,30.00,NE,50,0.0,2.0,69,0.00,,,0.00,Wunderground v.1.15,2013-08-16 23:45:00,
2013-08-16 19:50:00,87.4,76.0,30.00,NE,50,0.0,2.0,69,0.00,,,0.00,Wunderground v.1.15,2013-08-16 23:50:00,
2013-08-16 19:55:00,86.5,76.4,30.00,NE,50,1.0,2.0,72,0.00,,,0.00,Wunderground v.1.15,2013-08-16 23:55:00,
2013-08-16 20:00:00,85.1,76.7,30.00,NE,50,2.0,2.0,76,0.00,,,0.00,Wunderground v.1.15,2013-08-17 00:00:00,
2013-08-16 20:10:00,84.1,76.1,30.01,NE,50,1.0,4.0,77,0.00,,,0.00,Wunderground v.1.15,2013-08-17 00:10:00,
2013-08-16 20:15:00,83.7,75.7,30.01,NE,50,1.0,4.0,77,0.00,,,0.00,Wunderground v.1.15,2013-08-17 00:15:00,
2013-08-16 20:20:00,83.6,75.6,30.02,NE,50,0.0,4.0,77,0.00,,,0.00,Wunderground v.1.15,2013-08-17 00:20:00,
2013-08-16 20:25:00,83.4,75.4,30.02,NE,50,2.0,4.0,77,0.00,,,0.00,Wunderground v.1.15,2013-08-17 00:25:00,
2013-08-16 20:30:00,83.2,75.2,30.02,NE,50,3.0,4.0,77,0.00,,,0.00,Wunderground v.1.15,2013-08-17 00:30:00,
2013-08-16 20:35:00,82.9,75.3,30.03,NE,50,3.0,4.0,78,0.00,,,0.00,Wunderground v.1.15,2013-08-17 00:35:00,
2013-08-16 20:45:00,82.5,75.3,30.03,NE,50,1.0,4.0,79,0.00,,,0.00,Wunderground v.1.15,2013-08-17 00:45:00,
2013-08-16 20:50:00,82.4,75.2,30.03,NE,50,1.0,4.0,79,0.00,,,0.00,Wunderground v.1.15,2013-08-17 00:50:00,
2013-08-16 20:55:00,82.4,75.2,30.04,NE,50,2.0,5.0,79,0.00,,,0.00,Wunderground v.1.15,2013-08-17 00:55:00,
2013-08-16 21:00:00,82.4,75.2,30.04,NE,50,1.0,5.0,79,0.00,,,0.00,Wunderground v.1.15,2013-08-17 01:00:00,
2013-08-16 21:10:00,82.0,75.2,30.05,NE,50,2.0,2.0,80,0.00,,,0.00,Wunderground v.1.15,2013-08-17 01:10:00,
2013-08-16 21:15:00,82.0,75.6,30.05,NE,50,1.0,2.0,81,0.00,,,0.00,Wunderground v.1.15,2013-08-17 01:15:00,
2013-08-16 21:20:00,82.0,75.6,30.05,NE,50,0.0,2.0,81,0.00,,,0.00,Wunderground v.1.15,2013-08-17 01:20:00,
2013-08-16 21:25:00,82.0,75.2,30.05,NE,50,0.0,2.0,80,0.00,,,0.00,Wunderground v.1.15,2013-08-17 01:25:00,
2013-08-16 21:35:00,82.2,76.2,30.05,NE,50,0.0,2.0,82,0.00,,,0.00,Wunderground v.1.15,2013-08-17 01:35:00,
2013-08-16 21:40:00,82.1,75.7,30.05,NE,50,0.0,2.0,81,0.00,,,0.00,Wunderground v.1.15,2013-08-17 01:40:00,
2013-08-16 21:45:00,82.0,76.0,30.06,NE,50,0.0,2.0,82,0.00,,,0.00,Wunderground v.1.15,2013-08-17 01:45:00,
2013-08-16 21:50:00,82.0,76.0,30.06,NE,50,0.0,2.0,82,0.00,,,0.00,Wunderground v.1.15,2013-08-17 01:50:00,
2013-08-16 21:55:00,81.8,75.8,30.06,NE,50,0.0,2.0,82,0.00,,,0.00,Wunderground v.1.15,2013-08-17 01:55:00,
2013-08-16 22:00:00,81.7,76.0,30.06,NE,50,0.0,0.0,83,0.00,,,0.00,Wunderground v.1.15,2013-08-17 02:00:00,
2013-08-16 22:10:00,81.4,75.7,30.06,NE,50,0.0,0.0,83,0.00,,,0.00,Wunderground v.1.15,2013-08-17 02:10:00,
2013-08-16 22:20:00,81.2,76.3,30.06,NE,50,0.0,0.0,85,0.00,,,0.00,Wunderground v.1.15,2013-08-17 02:20:00,
2013-08-16 22:25:00,81.1,76.2,30.06,NE,50,0.0,0.0,85,0.00,,,0.00,Wunderground v.1.15,2013-08-17 02:25:00,
2013-08-16 22:30:00,81.1,76.2,30.06,NE,50,0.0,0.0,85,0.00,,,0.00,Wunderground v.1.15,2013-08-17 02:30:00,
2013-08-16 22:35:00,81.2,76.3,30.06,NE,50,0.0,0.0,85,0.00,,,0.00,Wunderground v.1.15,2013-08-17 02:35:00,
2013-08-16 22:40:00,81.4,76.5,30.06,NE,50,0.0,0.0,85,0.00,,,0.00,Wunderground v.1.15,2013-08-17 02:40:00,
2013-08-16 22:50:00,81.7,76.4,30.06,NE,50,0.0,0.0,84,0.00,,,0.00,Wunderground v.1.15,2013-08-17 02:50:00,
2013-08-16 22:55:00,81.9,76.6,30.06,NE,50,0.0,0.0,84,0.00,,,0.00,Wunderground v.1.15,2013-08-17 02:55:00,
2013-08-16 23:00:00,82.1,76.4,30.07,NE,50,0.0,0.0,83,0.00,,,0.00,Wunderground v.1.15,2013-08-17 03:00:00,
2013-08-16 23:10:00,82.1,76.8,30.06,NE,50,0.0,0.0,84,0.00,,,0.00,Wunderground v.1.15,2013-08-17 03:10:00,
2013-08-16 23:15:00,82.0,77.0,30.06,NE,50,0.0,0.0,85,0.00,,,0.00,Wunderground v.1.15,2013-08-17 03:15:00,
2013-08-16 23:20:00,81.9,76.9,30.07,NE,50,0.0,0.0,85,0.00,,,0.00,Wunderground v.1.15,2013-08-17 03:20:00,
2013-08-16 23:30:00,81.7,76.7,30.06,NE,50,0.0,0.0,85,0.00,,,0.00,Wunderground v.1.15,2013-08-17 03:30:00,
2013-08-16 23:35:00,81.7,77.1,30.07,NE,50,0.0,0.0,86,0.00,,,0.00,Wunderground v.1.15,2013-08-17 03:35:00,
2013-08-16 23:40:00,81.8,77.5,30.06,NE,50,0.0,0.0,87,0.00,,,0.00,Wunderground v.1.15,2013-08-17 03:40:00,
2013-08-16 23:45:00,81.7,77.5,30.06,NE,50,0.0,0.0,87,0.00,,,0.00,Wunderground v.1.15,2013-08-17 03:45:00,
2013-08-16 23:50:00,81.6,77.4,30.06,NE,50,0.0,0.0,87,0.00,,,0.00,Wunderground v.1.15,2013-08-17 03:50:00,
2013-08-16 23:55:00,81.5,77.3,30.06,NE,50,0.0,0.0,87,0.00,,,0.00,Wunderground v.1.15,2013-08-17 03:55:00,